TimeMST,TemperatureF,Dew PointF,Humidity,Sea Level PressureIn,VisibilityMPH,Wind Direction,Wind SpeedMPH,Gust SpeedMPH,PrecipitationIn,Events,Conditions,WindDirDegrees,DateUTC
12:30 AM,-5.8,-9.4,84,30.37,2.0,Calm,Calm,-,N/A,,Partly Cloudy,0,2013-01-05 07:30:00
12:32 AM,-7.6,-9.4,92,30.37,1.0,Calm,Calm,-,N/A,,Mist,0,2013-01-05 07:32:00
12:39 AM,-7.6,-9.4,92,30.37,0.5,West,3.5,-,N/A,Fog,Light Freezing Fog,280,2013-01-05 07:39:00
12:47 AM,-5.8,-9.4,84,30.37,2.0,West,3.5,-,N/A,,Mostly Cloudy,270,2013-01-05 07:47:00
12:53 AM,-6.0,-9.0,87,30.64,2.5,Calm,Calm,-,N/A,,Scattered Clouds,0,2013-01-05 07:53:00
1:05 AM,-5.8,-7.6,92,30.37,3.0,South,3.5,-,N/A,,Partly Cloudy,190,2013-01-05 08:05:00
1:53 AM,-7.1,-9.9,87,30.64,5.0,North,6.9,-,N/A,,Scattered Clouds,10,2013-01-05 08:53:00
2:02 AM,-5.8,-9.4,84,30.38,2.5,NNE,8.1,-,N/A,,Mostly Cloudy,20,2013-01-05 09:02:00
2:08 AM,-5.8,-7.6,92,30.38,0.8,Calm,Calm,-,N/A,,Mist,0,2013-01-05 09:08:00
2:53 AM,-7.1,-11.0,83,30.64,1.0,Calm,Calm,-,N/A,,Mist,0,2013-01-05 09:53:00
2:59 AM,-5.8,-9.4,84,30.39,3.0,WSW,3.5,-,N/A,,Mostly Cloudy,240,2013-01-05 09:59:00
3:08 AM,-5.8,-9.4,84,30.39,4.0,Calm,Calm,-,N/A,,Scattered Clouds,0,2013-01-05 10:08:00
3:15 AM,-7.6,-11.2,84,30.39,1.8,Calm,Calm,-,N/A,,Scattered Clouds,0,2013-01-05 10:15:00
3:30 AM,-9.4,-13.0,84,30.39,3.0,NNE,6.9,-,N/A,,Clear,30,2013-01-05 10:30:00
3:53 AM,-9.0,-13.0,83,30.66,6.0,Calm,Calm,-,N/A,,Scattered Clouds,0,2013-01-05 10:53:00
4:53 AM,-7.1,-11.9,79,30.69,3.0,Calm,Calm,-,N/A,,Haze,0,2013-01-05 11:53:00
5:02 AM,-7.6,-13.0,77,30.39,4.0,Calm,Calm,-,N/A,,Haze,0,2013-01-05 12:02:00
5:53 AM,-7.6,-11.2,84,30.41,7.0,NNE,8.1,-,N/A,,Clear,20,2013-01-05 12:53:00
6:01 AM,-5.8,-11.2,77,30.41,8.0,NE,4.6,-,N/A,,Scattered Clouds,50,2013-01-05 13:01:00
6:53 AM,-0.9,-6.0,79,30.71,8.0,ENE,9.2,-,N/A,,Clear,70,2013-01-05 13:53:00
7:53 AM,-7.1,-11.9,79,30.74,8.0,West,6.9,-,N/A,,Clear,260,2013-01-05 14:53:00
8:53 AM,-2.9,-8.0,79,30.74,7.0,NE,3.5,-,N/A,,Clear,50,2013-01-05 15:53:00
9:53 AM,-0.9,-2.9,91,30.73,5.0,Calm,Calm,-,N/A,,Clear,0,2013-01-05 16:53:00
10:53 AM,3.9,1.9,91,30.73,7.0,Calm,Calm,-,N/A,,Clear,0,2013-01-05 17:53:00
11:53 AM,10.0,1.9,70,30.70,10.0,NE,9.2,-,N/A,,Clear,50,2013-01-05 18:53:00
12:53 PM,15.1,3.9,61,30.65,10.0,ENE,8.1,-,N/A,,Clear,60,2013-01-05 19:53:00
1:53 PM,17.1,5.0,59,30.62,10.0,NE,5.8,-,N/A,,Clear,50,2013-01-05 20:53:00
2:53 PM,18.0,7.0,62,30.61,9.0,NE,8.1,-,N/A,,Clear,50,2013-01-05 21:53:00
3:53 PM,17.1,6.1,62,30.61,10.0,NE,8.1,-,N/A,,Clear,50,2013-01-05 22:53:00
4:53 PM,14.0,5.0,67,30.59,10.0,East,8.1,-,N/A,,Clear,80,2013-01-05 23:53:00
5:53 PM,12.9,5.0,71,30.59,10.0,East,9.2,-,N/A,,Clear,90,2013-01-06 00:53:00
6:53 PM,8.1,1.9,76,30.57,10.0,East,4.6,-,N/A,,Clear,90,2013-01-06 01:53:00
7:53 PM,3.9,-0.0,84,30.60,10.0,Calm,Calm,-,N/A,,Clear,0,2013-01-06 02:53:00
8:53 PM,5.0,-0.9,76,30.57,10.0,East,4.6,-,N/A,,Clear,90,2013-01-06 03:53:00
9:53 PM,10.0,3.0,73,30.52,10.0,East,11.5,-,N/A,,Clear,80,2013-01-06 04:53:00
10:53 PM,3.0,-2.0,80,30.52,9.0,Calm,Calm,-,N/A,,Clear,0,2013-01-06 05:53:00
11:53 PM,3.9,-0.0,84,30.48,7.0,ENE,5.8,-,N/A,,Clear,60,2013-01-06 06:53:00